User: anonymous   Login
Location: NJAA Observatory
(40.6819°N, 74.8979°W)
Time: 14:54:25
(UTC-04:00)
Language:

Landsat 5 - Orbit

View from above orbital plane
View from above orbital plane
View from above satellite
View from above satellite

Ground track
Ground track

The orbit data is extracted from the following two-line orbital elements,

1 14780U 84021A   17173.88374706 +.00000131 +00000-0 +18167-4 0  9999
2 14780 098.0401 285.9526 0091753 149.8318 210.8229 14.91497730301182
Epoch (UTC): 22 June 2017 21:12:35
Eccentricity: 0.0091753
inclination: 98.0401°
perigee height: 529 km
apogee height: 657 km
right ascension of ascending node: 285.9526°
argument of perigee: 149.8318°
revolutions per day: 14.91497730
mean anomaly at epoch: 210.8229°
orbit number at epoch: 30118

The dashed part of the orbit path shows where the satellite is in the earth's shadow,  

DLR